York, PA

3:01 PM EST on December 05, 2019 (GMT -0500)
York

Weather History for KTHV - November, 2019

Change the Weather History Date:

Monday, November 11, 2019

  Actual Average Record
Temperature  
Mean Temperature 48 °F -  
Max Temperature 66 °F 69 °F 72 °F (2006)
Min Temperature 30 °F 39 °F 17 °F (2017)
Degree Days  
Heating Degree Days 17    
Moisture  
Dew Point 35 °F    
Average Humidity 62    
Maximum Humidity 89    
Minimum Humidity 33    
Precipitation  
Precipitation 0.00 in - - ()
Sea Level Pressure  
Sea Level Pressure 29.96 in    
Wind  
Wind Speed 2 mph ()    
Max Wind Speed 13 mph    
Max Gust Speed 23 mph    
Visibility 9.7 miles    
Events      
Averages and records for this station are not official NWS values.
T = Trace of Precipitation, MM = Missing Value Source: Averaged Metar Reports

Daily Weather History Graph

Daily Weather History Graph

Search for Another Location

Airport or City:

Astronomy

Nov. 11, 2019 Rise Set
Actual Time 6:47 AM EST 4:54 PM EST
Civil Twilight 6:18 AM EST 5:23 PM EST
Nautical Twilight 5:46 AM EST 5:56 PM EST
Astronomical Twilight 5:14 AM EST 6:27 PM EST
Moon 4:49 PM EST (11/11) 5:36 AM EST (11/11)
Length of Visible Light 11h 04m
Length of Day
10h 07m
Waxing Gibbous, 99% of the Moon is Illuminated
Nov 11
Waxing Gibbous
Nov 12
Full
Nov 19
Last Quarter
Nov 26
New
Dec 4
First Quarter

Hourly Weather History & Observations

Time (EST) Temp. Dew Point Humidity Pressure Visibility Wind Dir Wind Speed Gust Speed Precip Events Conditions
12:53 AM 33.1 °F 28.9 °F 85% 30.05 in 10.0 mi Calm Calm - N/A   Clear
1:53 AM 32.0 °F 28.0 °F 85% 30.04 in 10.0 mi Calm Calm - N/A   Clear
2:53 AM 30.9 °F 27.0 °F 85% 30.04 in 10.0 mi Calm Calm - N/A   Clear
3:53 AM 30.0 °F 27.0 °F 88% 30.05 in 10.0 mi Calm Calm - N/A   Clear
4:53 AM 30.0 °F 27.0 °F 88% 30.06 in 10.0 mi Calm Calm - N/A   Clear
5:53 AM 30.0 °F 27.0 °F 88% 30.07 in 7.0 mi Calm Calm - N/A   Clear
6:53 AM 30.9 °F 28.0 °F 89% 30.07 in 7.0 mi Calm Calm - N/A   Clear
7:53 AM 37.0 °F 32.0 °F 82% 30.09 in 9.0 mi Calm Calm - N/A   Clear
8:53 AM 45.0 °F 35.1 °F 68% 30.09 in 10.0 mi Calm Calm - N/A   Clear
9:53 AM 50.0 °F 37.0 °F 61% 30.07 in 10.0 mi Calm Calm - N/A   Clear
10:53 AM 55.9 °F 37.9 °F 51% 30.06 in 10.0 mi Calm Calm - N/A   Clear
11:53 AM 61.0 °F 41.0 °F 48% 30.03 in 10.0 mi Calm Calm - N/A   Clear
12:53 PM 66.0 °F 39.0 °F 37% 29.98 in 10.0 mi Variable 5.8 mph - N/A   Clear
1:53 PM 66.9 °F 39.0 °F 36% 29.96 in 10.0 mi SW 6.9 mph - N/A   Clear
3:53 PM 64.9 °F 35.1 °F 33% 29.91 in 10.0 mi South 5.8 mph - N/A   Clear
4:53 PM 60.1 °F 37.9 °F 44% 29.88 in 10.0 mi SSE 8.1 mph - N/A   Clear
5:53 PM 59.0 °F 36.0 °F 42% 29.86 in 10.0 mi SSE 6.9 mph - N/A   Clear
6:53 PM 57.0 °F 37.9 °F 49% 29.86 in 10.0 mi Variable 3.5 mph - N/A   Clear
7:53 PM 55.9 °F 39.0 °F 53% 29.84 in 10.0 mi Variable 4.6 mph - N/A   Clear
8:53 PM 57.0 °F 39.9 °F 53% 29.82 in 10.0 mi Variable 5.8 mph - N/A   Clear
9:53 PM 59.0 °F 39.9 °F 49% 29.79 in 10.0 mi South 12.7 mph 23.0 mph N/A   Clear
10:53 PM 57.9 °F 39.9 °F 51% 29.78 in 10.0 mi SSW 9.2 mph - N/A   Clear
11:53 PM 57.0 °F 39.9 °F 53% 29.75 in 10.0 mi Variable 6.9 mph - N/A   Clear